Weather History for Glenwood, MN

Change the Weather History Date:

Wednesday, November 3, 2010

  Actual Average Record
Temperature  
Mean Temperature 43 °F -  
Max Temperature 51 °F 44 °F 75 °F (2008)
Min Temperature 35 °F 26 °F 0 °F (1951)
Degree Days  
Heating Degree Days 22    
Moisture  
Dew Point 34 °F    
Average Humidity 69    
Maximum Humidity 93    
Minimum Humidity 44    
Precipitation  
Precipitation 0.00 in - - ()
Sea Level Pressure  
Sea Level Pressure 30.09 in    
Wind  
Wind Speed 14 mph (WNW)    
Max Wind Speed 28 mph    
Max Gust Speed 38 mph    
Visibility 10 miles    
Events      
Averages and records for this station are not official NWS values.
T = Trace of Precipitation, MM = Missing Value Source: NWS Daily Summary

Daily Weather History Graph

Daily Weather History Graph

Search for Another Location

Airport:

Trip Planner

Search our weather history database for the weather conditions in past years. The results will help you decide how hot, cold, wet, or windy it might be!

Date:

Astronomy

Nov. 03, 2010 Rise Set
Actual Time 8:03 AM CDT 6:05 PM CDT
Civil Twilight 7:32 AM CDT 6:36 PM CDT
Nautical Twilight 6:57 AM CDT 7:11 PM CDT
Astronomical Twilight 6:22 AM CDT 7:46 PM CDT
Moon 4:57 AM CDT (11/3) 4:20 PM CDT (11/3)
Length of Visible Light 11h 03m
Length of Day
10h 01m
Waning Crescent, 9% of the Moon is Illuminated
Nov 3
Waning Crescent
Nov 5
New
Nov 13
First Quarter
Nov 21
Full
Nov 28
Last Quarter

Hourly Weather History & Observations

Time (CDT) Temp. Windchill Dew Point Humidity Pressure Visibility Wind Dir Wind Speed Gust Speed Precip Events Conditions
12:13 AM 42.8 °F 37.5 °F 37.4 °F 81% 30.07 in 10.0 mi West 9.2 mph - N/A   Clear
12:53 AM 42.8 °F 37.5 °F 37.4 °F 81% 30.07 in 10.0 mi West 9.2 mph - N/A   Clear
1:13 AM 42.8 °F 38.0 °F 37.4 °F 81% 30.07 in 10.0 mi West 8.1 mph - N/A   Clear
1:33 AM 42.8 °F 38.0 °F 37.4 °F 81% 30.07 in 10.0 mi West 8.1 mph - N/A   Clear
1:53 AM 42.8 °F 38.6 °F 37.4 °F 81% 30.07 in 10.0 mi West 6.9 mph - N/A   Clear
2:13 AM 42.8 °F 37.0 °F 37.4 °F 81% 30.07 in 10.0 mi WNW 10.4 mph - N/A   Clear
2:33 AM 42.8 °F 37.5 °F 37.4 °F 81% 30.07 in 10.0 mi WNW 9.2 mph - N/A   Clear
2:53 AM 42.8 °F 38.0 °F 37.4 °F 81% 30.08 in 10.0 mi West 8.1 mph - N/A   Clear
3:13 AM 39.2 °F 33.6 °F 35.6 °F 87% 30.09 in 10.0 mi West 8.1 mph - N/A   Clear
3:33 AM 41.0 °F 35.2 °F 35.6 °F 81% 30.09 in 10.0 mi West 9.2 mph - N/A   Clear
3:53 AM 41.0 °F 35.2 °F 35.6 °F 81% 30.10 in 10.0 mi WNW 9.2 mph - N/A   Clear
4:13 AM 41.0 °F 35.8 °F 35.6 °F 81% 30.09 in 10.0 mi West 8.1 mph - N/A   Clear
4:33 AM 39.2 °F 33.0 °F 35.6 °F 87% 30.09 in 10.0 mi West 9.2 mph - N/A   Clear
4:53 AM 41.0 °F 34.7 °F 35.6 °F 81% 30.08 in 10.0 mi West 10.4 mph - N/A   Clear
5:13 AM 39.2 °F 33.6 °F 35.6 °F 87% 30.08 in 10.0 mi West 8.1 mph - N/A   Clear
5:33 AM 35.6 °F 29.2 °F 33.8 °F 93% 30.09 in 10.0 mi West 8.1 mph - N/A   Clear
5:53 AM 39.2 °F 32.0 °F 35.6 °F 87% 30.09 in 10.0 mi West 11.5 mph - N/A   Clear
6:13 AM 39.2 °F 31.6 °F 35.6 °F 87% 30.10 in 10.0 mi West 12.7 mph - N/A   Clear
6:33 AM 39.2 °F 32.0 °F 33.8 °F 81% 30.10 in 10.0 mi West 11.5 mph - N/A   Clear
6:53 AM 39.2 °F 30.8 °F 33.8 °F 81% 30.10 in 10.0 mi West 15.0 mph - N/A   Clear
7:13 AM 39.2 °F 30.2 °F 33.8 °F 81% 30.10 in 10.0 mi West 17.3 mph - N/A   Clear
7:33 AM 39.2 °F 31.2 °F 33.8 °F 81% 30.10 in 10.0 mi West 13.8 mph - N/A   Clear
7:53 AM 39.2 °F 31.2 °F 33.8 °F 81% 30.09 in 10.0 mi West 13.8 mph - N/A   Clear
8:13 AM 39.2 °F 31.6 °F 33.8 °F 81% 30.09 in 10.0 mi West 12.7 mph - N/A   Clear
8:33 AM 39.2 °F 30.8 °F 33.8 °F 81% 30.09 in 10.0 mi West 15.0 mph - N/A   Clear
8:53 AM 39.2 °F 29.6 °F 33.8 °F 81% 30.10 in 10.0 mi West 19.6 mph - N/A   Clear
9:13 AM 41.0 °F 32.2 °F 33.8 °F 76% 30.09 in 10.0 mi WNW 18.4 mph - N/A   Clear
9:33 AM 42.8 °F 33.8 °F 33.8 °F 70% 30.09 in 10.0 mi WNW 21.9 mph 25.3 mph N/A   Clear
9:53 AM 42.8 °F 34.0 °F 33.8 °F 70% 30.09 in 10.0 mi WNW 20.7 mph 28.8 mph N/A   Clear
10:13 AM 44.6 °F 36.4 °F 33.8 °F 66% 30.09 in 10.0 mi WNW 20.7 mph 27.6 mph N/A   Clear
10:33 AM 44.6 °F 36.4 °F 33.8 °F 66% 30.09 in 10.0 mi WNW 20.7 mph 29.9 mph N/A   Clear
10:54 AM 46.4 °F 37.7 °F 32.0 °F 57% 30.09 in 10.0 mi WNW 26.5 mph 29.9 mph N/A   Clear
11:13 AM 46.4 °F 37.5 °F 32.0 °F 57% 30.08 in 10.0 mi WNW 27.6 mph 33.4 mph N/A   Clear
11:33 AM 48.2 °F - 33.8 °F 58% 30.08 in 10.0 mi WNW 24.2 mph 29.9 mph N/A   Clear
11:53 AM 48.2 °F - 32.0 °F 54% 30.08 in 10.0 mi WNW 26.5 mph 33.4 mph N/A   Clear
12:14 PM 48.2 °F - 33.8 °F 58% 30.08 in 10.0 mi WNW 23.0 mph 31.1 mph N/A   Clear
12:33 PM 50.0 °F - 33.8 °F 54% 30.08 in 10.0 mi WNW 26.5 mph 32.2 mph N/A   Clear
12:53 PM 50.0 °F - 33.8 °F 54% 30.07 in 10.0 mi NW 24.2 mph 32.2 mph N/A   Clear
1:13 PM 50.0 °F - 33.8 °F 54% 30.07 in 10.0 mi WNW 21.9 mph 29.9 mph N/A   Clear
1:33 PM 51.8 °F - 32.0 °F 47% 30.06 in 10.0 mi NW 21.9 mph 34.5 mph N/A   Clear
1:53 PM 51.8 °F - 32.0 °F 47% 30.06 in 10.0 mi NW 21.9 mph 31.1 mph N/A   Clear
2:13 PM 51.8 °F - 32.0 °F 47% 30.06 in 10.0 mi NW 24.2 mph 34.5 mph N/A   Clear
2:33 PM 51.8 °F - 32.0 °F 47% 30.05 in 10.0 mi NW 24.2 mph 34.5 mph N/A   Clear
3:13 PM 51.8 °F - 32.0 °F 47% 30.05 in 10.0 mi NW 21.9 mph 33.4 mph N/A   Clear
3:33 PM 51.8 °F - 32.0 °F 47% 30.06 in 10.0 mi NW 23.0 mph 38.0 mph N/A   Clear
3:51 PM 51.8 °F - 32.0 °F 47% 30.06 in 10.0 mi WNW 25.3 mph 36.8 mph N/A   Clear
4:13 PM 51.8 °F - 30.2 °F 44% 30.06 in 10.0 mi NW 23.0 mph 31.1 mph N/A   Clear
4:33 PM 51.8 °F - 30.2 °F 44% 30.08 in 10.0 mi NW 21.9 mph 28.8 mph N/A   Clear
4:53 PM 50.0 °F - 30.2 °F 47% 30.08 in 10.0 mi NW 16.1 mph 32.2 mph N/A   Clear
5:14 PM 48.2 °F - 30.2 °F 50% 30.09 in 10.0 mi NW 18.4 mph 29.9 mph N/A   Clear
5:33 PM 48.2 °F - 32.0 °F 54% 30.10 in 10.0 mi NW 19.6 mph 23.0 mph N/A   Clear
5:53 PM 46.4 °F 40.1 °F 33.8 °F 62% 30.10 in 10.0 mi NW 15.0 mph 24.2 mph N/A   Clear
6:14 PM 46.4 °F 39.8 °F 33.8 °F 62% 30.10 in 10.0 mi NW 16.1 mph - N/A   Clear
6:33 PM 44.6 °F 38.1 °F 33.8 °F 66% 30.11 in 10.0 mi NW 13.8 mph - N/A   Clear
6:53 PM 44.6 °F 37.4 °F 33.8 °F 66% 30.11 in 10.0 mi WNW 16.1 mph 21.9 mph N/A   Clear
7:13 PM 44.6 °F 37.2 °F 33.8 °F 66% 30.12 in 10.0 mi NW 17.3 mph - N/A   Clear
7:33 PM 44.6 °F 37.2 °F 33.8 °F 66% 30.12 in 10.0 mi WNW 17.3 mph - N/A   Clear
7:53 PM 42.8 °F 35.1 °F 33.8 °F 70% 30.13 in 10.0 mi WNW 16.1 mph - N/A   Clear
8:13 PM 42.8 °F 35.4 °F 33.8 °F 70% 30.13 in 10.0 mi WNW 15.0 mph - N/A   Clear
8:33 PM 42.8 °F 35.1 °F 33.8 °F 70% 30.14 in 10.0 mi WNW 16.1 mph - N/A   Clear
8:53 PM 42.8 °F 35.8 °F 33.8 °F 70% 30.14 in 10.0 mi WNW 13.8 mph - N/A   Clear
9:13 PM 41.0 °F 33.1 °F 33.8 °F 76% 30.14 in 10.0 mi WNW 15.0 mph - N/A   Clear
9:33 PM 41.0 °F 33.9 °F 33.8 °F 76% 30.15 in 10.0 mi WNW 12.7 mph - N/A   Clear
9:53 PM 41.0 °F 33.5 °F 33.8 °F 76% 30.15 in 10.0 mi WNW 13.8 mph - N/A   Clear
10:14 PM 39.2 °F 31.2 °F 33.8 °F 81% 30.15 in 10.0 mi WNW 13.8 mph - N/A   Clear
10:33 PM 39.2 °F 31.6 °F 33.8 °F 81% 30.15 in 10.0 mi WNW 12.7 mph - N/A   Clear
10:53 PM 39.2 °F 32.0 °F 33.8 °F 81% 30.15 in 10.0 mi WNW 11.5 mph - N/A   Clear
11:13 PM 39.2 °F 30.8 °F 33.8 °F 81% 30.15 in 10.0 mi WNW 15.0 mph - N/A   Clear
11:34 PM 39.2 °F 30.5 °F 33.8 °F 81% 30.15 in 10.0 mi WNW 16.1 mph - N/A   Clear
11:53 PM 39.2 °F 30.8 °F 33.8 °F 81% 30.15 in 10.0 mi WNW 15.0 mph - N/A   Clear